Powrót do katalogu

FENGYUN 1C DEB

AktywnyPO
NORAD 31098·DEBRIS·🇨🇳 China

Wystrzelony May 10, 1999 z Taiyuan Satellite Launch Center

Loading…

Następne Przeloty (najbliższe 24 godziny)

TLE

ŚwieżeSource: Space-Track

Epoka: Sep 14, 2026, 19:52 UTC

1 31098U 99025BGU 26257.82779041  .00009191  00000-0  20174-2 0  9992
2 31098  98.8800  37.7265 0013753 136.4670 223.7615 14.57761722  9739

Śledź FENGYUN 1C DEB w czasie rzeczywistym z AllMySat

Download on the App Store